Starlink 11507

operational
NORAD ID: 62519 Int'l Des: 2025-004 Owner: SPXS Country: US Constellation: starlink
LEOCIRCULAR

Starlink 11507について

説明を読み込み中...

リアルタイム位置

3D地球を読み込み中...

次回通過

高度履歴

Altitude vs Time

uPlot chart will show altitude changes over time

軌道要素

1 62519U 25004J 26034.01450310 .00129960 00000-0 99915-3 0 9996
2 62519 42.9973 279.8614 0001827 275.9022 84.1637 15.70872567 61757
Epoch: Feb 3, 2026 • Age: 31 hours

現在のステータス

高度 357.4 km
速度 7.70 km/s
衛星直下点 31.90°N, 164.8°E
打ち上げ日 Jan 8, 2025
運用期間 1 years
タイプ internet

技術仕様

分類 Payload
質量 960.00 kg
乾燥質量 910.00 kg
総質量 960.00 kg
長さ 0.30 m
直径 4.10 m
スパン 29.00 m
形状 Box + pan
製造者 SPXS
バスタイプ Starlink V2MD
フェーズステータス In Orbit
所有者/国 SPXS/US

大規模コンステレーション

Loading constellations...